When you browse on this site, cookies collect data to enhance your experience and personalize the content and advertising you see.
Visit our Privacy Policy to learn more. By continuing to use the site, you agree to this use of cookies and data.
  • Em Portugal
  • Lista de países
  • Para 7 dias
  • Temperatura da água
  • Mapas de satélite
  • Mapa do tempo
  • Widgets de tempo
  • user-avatar
    Iniciar Sessão

    Previsão horária em Viedma

    Hoje, 16 Dezembro, Domingo

    Tempo Temperatura Precipitação Vento Pressão Humidade
    00:00 +28°C° 0 mm 8 m/s 750 mmHg 19%
    01:00 +27°C° 0 mm 8 m/s 750 mmHg 22%
    02:00 +26°C° 0 mm 6 m/s 749 mmHg 27%
    03:00 +26°C° 0 mm 6 m/s 750 mmHg 30%
    04:00 +24°C° 0 mm 6 m/s 750 mmHg 33%
    05:00 +24°C° 0 mm 6 m/s 750 mmHg 36%
    06:00 +26°C° 0 mm 6 m/s 750 mmHg 34%
    07:00 +28°C° 0 mm 6 m/s 751 mmHg 32%
    08:00 +30°C° 0 mm 6 m/s 750 mmHg 29%
    09:00 +32°C° 0 mm 6 m/s 750 mmHg 28%
    10:00 +32°C° 0 mm 6 m/s 750 mmHg 27%
    11:00 +33°C° 0 mm 6 m/s 751 mmHg 26%
    12:00 +32°C° 0 mm 6 m/s 750 mmHg 27%
    13:00 +32°C° 0 mm 5 m/s 750 mmHg 28%
    14:00 +30°C° 0 mm 5 m/s 750 mmHg 29%
    15:00 +29°C° 0 mm 6 m/s 750 mmHg 33%
    16:00 +27°C° 0 mm 6 m/s 751 mmHg 38%
    17:00 +24°C° 0 mm 7 m/s 751 mmHg 43%
    18:00 +22°C° 0 mm 8 m/s 752 mmHg 49%
    19:00 +19°C° 0 mm 9 m/s 754 mmHg 56%
    20:00 +17°C° 0 mm 10 m/s 755 mmHg 62%
    21:00 +17°C° 0 mm 10 m/s 756 mmHg 64%
    22:00 +16°C° 0 mm 9 m/s 757 mmHg 65%
    23:00 +15°C° 0 mm 9 m/s 758 mmHg 67%

    Amanhã, 17 Dezembro, Segunda-feira

    Tempo Temperatura Precipitação Vento Pressão Humidade
    00:00 +15°C° 0 mm 8 m/s 759 mmHg 67%
    01:00 +15°C° 0 mm 8 m/s 760 mmHg 67%
    02:00 +15°C° 0 mm 7 m/s 760 mmHg 67%
    03:00 +15°C° 0 mm 6 m/s 760 mmHg 65%
    04:00 +14°C° 0 mm 6 m/s 761 mmHg 63%
    05:00 +14°C° 0 mm 5 m/s 761 mmHg 61%
    06:00 +15°C° 0 mm 5 m/s 762 mmHg 54%
    07:00 +16°C° 0 mm 5 m/s 762 mmHg 47%
    08:00 +17°C° 0 mm 5 m/s 763 mmHg 40%
    09:00 +19°C° 0 mm 4 m/s 763 mmHg 36%
    10:00 +20°C° 0 mm 4 m/s 763 mmHg 32%
    11:00 +21°C° 0 mm 4 m/s 764 mmHg 28%
    12:00 +22°C° 0 mm 5 m/s 763 mmHg 28%
    13:00 +22°C° 0 mm 5 m/s 763 mmHg 27%
    14:00 +22°C° 0 mm 6 m/s 763 mmHg 27%
    15:00 +22°C° 0 mm 6 m/s 763 mmHg 28%
    16:00 +21°C° 0 mm 7 m/s 763 mmHg 30%
    17:00 +21°C° 0 mm 7 m/s 763 mmHg 32%
    18:00 +20°C° 0 mm 7 m/s 763 mmHg 37%
    19:00 +17°C° 0 mm 7 m/s 763 mmHg 42%
    20:00 +16°C° 0 mm 7 m/s 763 mmHg 47%
    21:00 +15°C° 0 mm 7 m/s 763 mmHg 50%
    22:00 +15°C° 0 mm 7 m/s 763 mmHg 53%
    23:00 +13°C° 0 mm 8 m/s 763 mmHg 56%

    Depois de amanhã, 18 Dezembro, Terça-feira

    Tempo Temperatura Precipitação Vento Pressão Humidade
    00:00 +14°C° 0 mm 7 m/s 763 mmHg 57%
    01:00 +14°C° 0 mm 7 m/s 762 mmHg 59%
    02:00 +14°C° 0 mm 7 m/s 762 mmHg 60%
    03:00 +12°C° 0 mm 7 m/s 762 mmHg 62%
    04:00 +13°C° 0 mm 6 m/s 762 mmHg 64%
    05:00 +13°C° 0 mm 6 m/s 762 mmHg 66%
    06:00 +14°C° 0 mm 7 m/s 762 mmHg 58%
    07:00 +16°C° 0 mm 7 m/s 762 mmHg 50%
    08:00 +18°C° 0 mm 7 m/s 762 mmHg 41%
    09:00 +21°C° 0 mm 7 m/s 762 mmHg 34%
    10:00 +24°C° 0 mm 7 m/s 761 mmHg 26%
    11:00 +27°C° 0 mm 6 m/s 761 mmHg 18%
    12:00 +28°C° 0 mm 6 m/s 760 mmHg 17%
    13:00 +29°C° 0 mm 6 m/s 759 mmHg 17%
    14:00 +30°C° 0 mm 6 m/s 759 mmHg 16%
    15:00 +30°C° 0 mm 6 m/s 758 mmHg 17%
    16:00 +30°C° 0 mm 7 m/s 757 mmHg 17%
    17:00 +30°C° 0 mm 7 m/s 756 mmHg 18%
    18:00 +28°C° 0 mm 8 m/s 756 mmHg 22%
    19:00 +26°C° 0 mm 8 m/s 756 mmHg 25%
    20:00 +23°C° 0 mm 9 m/s 756 mmHg 29%
    21:00 +23°C° 0 mm 9 m/s 755 mmHg 33%
    22:00 +22°C° 0 mm 10 m/s 755 mmHg 38%
    23:00 +21°C° 0 mm 10 m/s 754 mmHg 42%

    19 Dezembro, Quarta-feira

    Tempo Temperatura Precipitação Vento Pressão Humidade
    00:00 +21°C° 0 mm 10 m/s 754 mmHg 38%
    01:00 +22°C° 0 mm 9 m/s 753 mmHg 34%
    02:00 +22°C° 0 mm 9 m/s 752 mmHg 30%
    03:00 +22°C° 0 mm 9 m/s 752 mmHg 32%
    04:00 +22°C° 0 mm 9 m/s 752 mmHg 35%
    05:00 +22°C° 0 mm 9 m/s 752 mmHg 37%
    06:00 +23°C° 0 mm 8 m/s 752 mmHg 39%
    07:00 +24°C° 0 mm 8 m/s 751 mmHg 41%
    08:00 +26°C° 0 mm 8 m/s 751 mmHg 43%
    09:00 +28°C° 0 mm 7 m/s 751 mmHg 39%
    10:00 +30°C° 0 mm 6 m/s 751 mmHg 34%
    11:00 +33°C° 0 mm 6 m/s 750 mmHg 30%
    12:00 +30°C° 0.3 mm 6 m/s 750 mmHg 35%
    13:00 +29°C° 0.3 mm 7 m/s 750 mmHg 40%
    14:00 +27°C° 0.3 mm 7 m/s 749 mmHg 45%
    15:00 +26°C° 1.4 mm 8 m/s 749 mmHg 49%
    16:00 +24°C° 1.4 mm 8 m/s 749 mmHg 54%
    17:00 +22°C° 1.4 mm 9 m/s 750 mmHg 58%
    18:00 +22°C° 0.1 mm 8 m/s 750 mmHg 61%
    19:00 +21°C° 0.1 mm 8 m/s 751 mmHg 63%
    20:00 +20°C° 0.1 mm 7 m/s 751 mmHg 66%
    21:00 +19°C° 0.1 mm 6 m/s 752 mmHg 67%
    22:00 +19°C° 0.1 mm 6 m/s 752 mmHg 69%
    23:00 +17°C° 0.1 mm 5 m/s 753 mmHg 70%

    20 Dezembro, Quinta-feira

    Tempo Temperatura Precipitação Vento Pressão Humidade
    00:00 +17°C° 0.1 mm 5 m/s 752 mmHg 70%
    01:00 +17°C° 0.1 mm 5 m/s 752 mmHg 69%
    02:00 +17°C° 0.1 mm 6 m/s 752 mmHg 69%
    03:00 +17°C° 0 mm 6 m/s 753 mmHg 70%
    04:00 +17°C° 0 mm 6 m/s 753 mmHg 71%
    05:00 +16°C° 0 mm 6 m/s 753 mmHg 71%
    06:00 +17°C° 0 mm 6 m/s 753 mmHg 68%
    07:00 +19°C° 0 mm 6 m/s 754 mmHg 64%
    08:00 +20°C° 0 mm 5 m/s 754 mmHg 60%
    09:00 +20°C° 0.3 mm 7 m/s 754 mmHg 61%
    10:00 +20°C° 0.3 mm 8 m/s 754 mmHg 61%
    11:00 +19°C° 0.3 mm 10 m/s 754 mmHg 62%
    12:00 +19°C° 0.1 mm 9 m/s 754 mmHg 62%
    13:00 +19°C° 0.1 mm 9 m/s 754 mmHg 62%
    14:00 +18°C° 0.1 mm 9 m/s 754 mmHg 62%
    15:00 +18°C° 0 mm 9 m/s 753 mmHg 62%
    16:00 +18°C° 0 mm 9 m/s 753 mmHg 62%
    17:00 +18°C° 0 mm 9 m/s 753 mmHg 62%
    18:00 +18°C° 0 mm 7 m/s 753 mmHg 65%
    19:00 +17°C° 0 mm 6 m/s 754 mmHg 68%
    20:00 +16°C° 0 mm 5 m/s 754 mmHg 71%
    21:00 +17°C° 0 mm 4 m/s 754 mmHg 75%
    22:00 +16°C° 0 mm 3 m/s 754 mmHg 78%
    23:00 +16°C° 0 mm 2 m/s 754 mmHg 81%

    21 Dezembro, Sexta-feira

    Tempo Temperatura Precipitação Vento Pressão Humidade
    00:00 +16°C° 0 mm 2 m/s 753 mmHg 82%
    01:00 +15°C° 0 mm 2 m/s 753 mmHg 82%
    02:00 +15°C° 0 mm 2 m/s 753 mmHg 83%
    03:00 +15°C° 0 mm 2 m/s 753 mmHg 80%
    04:00 +15°C° 0 mm 2 m/s 753 mmHg 78%
    05:00 +15°C° 0 mm 2 m/s 753 mmHg 75%
    06:00 +17°C° 0 mm 3 m/s 753 mmHg 65%
    07:00 +20°C° 0 mm 3 m/s 753 mmHg 55%
    08:00 +22°C° 0 mm 3 m/s 753 mmHg 45%
    09:00 +25°C° 0 mm 3 m/s 753 mmHg 40%
    10:00 +27°C° 0 mm 3 m/s 753 mmHg 36%
    11:00 +28°C° 0 mm 3 m/s 752 mmHg 31%
    12:00 +29°C° 0 mm 4 m/s 752 mmHg 30%
    13:00 +30°C° 0 mm 4 m/s 752 mmHg 28%
    14:00 +30°C° 0 mm 4 m/s 751 mmHg 27%
    15:00 +30°C° 0 mm 4 m/s 751 mmHg 27%
    16:00 +30°C° 0 mm 4 m/s 750 mmHg 27%
    17:00 +30°C° 0 mm 4 m/s 750 mmHg 27%
    18:00 +28°C° 0 mm 4 m/s 750 mmHg 31%
    19:00 +26°C° 0 mm 4 m/s 750 mmHg 36%
    20:00 +25°C° 0 mm 4 m/s 750 mmHg 40%
    21:00 +23°C° 0 mm 4 m/s 751 mmHg 42%
    22:00 +22°C° 0 mm 4 m/s 751 mmHg 44%
    23:00 +22°C° 0 mm 4 m/s 751 mmHg 47%
    Mostrar mais